contact:dominique.lefevre@mio.osupytheas.fr, maurice.libes@osupytheas.fr, didier.mallarino@osupytheas.fr
Project:EMSO http://www.emso-fr.org/EMSO-France
Depth: 2436.0 m
Title:EMSO Ligure Ouest : Data MII capteur MICROCAT
DateTime_Computer,Latitude,Longitude,Temperature,Conductivity,Pressure,DateTime_Instrument
DateTime_Computer,Latitude,Longitude,degC,S m-1,dbar,DateTime_Instrument
2022-05-26T00:01:29Z,42.805,6.029,13.3000,4.60031,2470.6,2022-5-26T02:03:11Z
2022-05-26T00:04:32Z,42.805,6.029,13.3004,4.60031,2470.591,2022-5-26T02:06:14Z
2022-05-26T00:07:35Z,42.805,6.029,13.3003,4.60029,2470.577,2022-5-26T02:09:17Z
2022-05-26T00:10:38Z,42.805,6.029,13.3000,4.60029,2470.577,2022-5-26T02:12:20Z
2022-05-26T00:13:41Z,42.805,6.029,13.2998,4.60029,2470.591,2022-5-26T02:15:23Z
2022-05-26T00:16:45Z,42.805,6.029,13.3004,4.60030,2470.6,2022-5-26T02:18:26Z
2022-05-26T00:19:48Z,42.805,6.029,13.2999,4.60031,2470.624,2022-5-26T02:21:30Z
2022-05-26T00:22:51Z,42.805,6.029,13.3000,4.60031,2470.6,2022-5-26T02:24:33Z
2022-05-26T00:25:54Z,42.805,6.029,13.2999,4.60031,2470.6,2022-5-26T02:27:36Z
2022-05-26T00:28:57Z,42.805,6.029,13.2996,4.60030,2470.6,2022-5-26T02:30:39Z
2022-05-26T00:32:00Z,42.805,6.029,13.3000,4.60029,2470.577,2022-5-26T02:33:42Z
2022-05-26T00:35:03Z,42.805,6.029,13.2998,4.60030,2470.591,2022-5-26T02:36:45Z
2022-05-26T00:38:06Z,42.805,6.029,13.2998,4.60030,2470.6,2022-5-26T02:39:48Z
2022-05-26T00:41:10Z,42.805,6.029,13.2996,4.60031,2470.577,2022-5-26T02:42:51Z
2022-05-26T00:44:13Z,42.805,6.029,13.3001,4.60030,2470.6,2022-5-26T02:45:54Z
2022-05-26T00:47:16Z,42.805,6.029,13.3002,4.60030,2470.614,2022-5-26T02:48:58Z
2022-05-26T00:50:19Z,42.805,6.029,13.2997,4.60031,2470.614,2022-5-26T02:52:01Z
2022-05-26T00:53:22Z,42.805,6.029,13.3000,4.60030,2470.591,2022-5-26T02:55:04Z
2022-05-26T00:56:25Z,42.805,6.029,13.3002,4.60030,2470.61,2022-5-26T02:58:07Z
2022-05-26T00:59:28Z,42.805,6.029,13.3002,4.60031,2470.6,2022-5-26T03:01:10Z
2022-05-26T01:02:31Z,42.805,6.029,13.3003,4.60031,2470.577,2022-5-26T03:04:13Z
2022-05-26T01:05:35Z,42.805,6.029,13.2999,4.60031,2470.6,2022-5-26T03:07:16Z
2022-05-26T01:08:38Z,42.805,6.029,13.3002,4.60031,2470.586,2022-5-26T03:10:19Z
2022-05-26T01:11:41Z,42.805,6.029,13.3004,4.60031,2470.6,2022-5-26T03:13:23Z
2022-05-26T01:14:44Z,42.805,6.029,13.3003,4.60033,2470.624,2022-5-26T03:16:26Z
2022-05-26T01:17:47Z,42.805,6.029,13.3006,4.60037,2470.614,2022-5-26T03:19:29Z
2022-05-26T01:20:50Z,42.805,6.029,13.3001,4.60032,2470.6,2022-5-26T03:22:32Z
2022-05-26T01:23:53Z,42.805,6.029,13.3002,4.60031,2470.624,2022-5-26T03:25:35Z
2022-05-26T01:26:56Z,42.805,6.029,13.3000,4.60032,2470.577,2022-5-26T03:28:38Z
2022-05-26T01:30:00Z,42.805,6.029,13.3004,4.60033,2470.624,2022-5-26T03:31:41Z
2022-05-26T01:33:03Z,42.805,6.029,13.3000,4.60031,2470.637,2022-5-26T03:34:44Z
2022-05-26T01:36:06Z,42.805,6.029,13.3004,4.60032,2470.646,2022-5-26T03:37:48Z
2022-05-26T01:39:09Z,42.805,6.029,13.3000,4.60032,2470.6,2022-5-26T03:40:51Z
2022-05-26T01:42:12Z,42.805,6.029,13.3004,4.60033,2470.646,2022-5-26T03:43:54Z
2022-05-26T01:45:15Z,42.805,6.029,13.3000,4.60033,2470.646,2022-5-26T03:46:57Z
2022-05-26T01:48:18Z,42.805,6.029,13.3001,4.60033,2470.67,2022-5-26T03:50:00Z
2022-05-26T01:51:21Z,42.805,6.029,13.3000,4.60033,2470.624,2022-5-26T03:53:03Z
2022-05-26T01:54:25Z,42.805,6.029,13.3001,4.60033,2470.67,2022-5-26T03:56:06Z
2022-05-26T01:57:28Z,42.805,6.029,13.3006,4.60033,2470.661,2022-5-26T03:59:09Z
2022-05-26T02:00:31Z,42.805,6.029,13.3004,4.60036,2470.67,2022-5-26T04:02:13Z
2022-05-26T02:03:34Z,42.805,6.029,13.3004,4.60033,2470.67,2022-5-26T04:05:16Z
2022-05-26T02:06:37Z,42.805,6.029,13.3003,4.60033,2470.646,2022-5-26T04:08:19Z
2022-05-26T02:09:40Z,42.805,6.029,13.3004,4.60033,2470.693,2022-5-26T04:11:22Z
2022-05-26T02:12:43Z,42.805,6.029,13.3001,4.60033,2470.693,2022-5-26T04:14:25Z
2022-05-26T02:15:46Z,42.805,6.029,13.3005,4.60033,2470.661,2022-5-26T04:17:28Z
2022-05-26T02:18:49Z,42.805,6.029,13.3002,4.60037,2470.693,2022-5-26T04:20:31Z
2022-05-26T02:21:53Z,42.805,6.029,13.3002,4.60034,2470.661,2022-5-26T04:23:34Z
2022-05-26T02:24:56Z,42.805,6.029,13.3004,4.60033,2470.67,2022-5-26T04:26:37Z
2022-05-26T02:27:59Z,42.805,6.029,13.3005,4.60034,2470.67,2022-5-26T04:29:41Z
2022-05-26T02:31:02Z,42.805,6.029,13.3004,4.60033,2470.684,2022-5-26T04:32:44Z
2022-05-26T02:34:05Z,42.805,6.029,13.3004,4.60033,2470.67,2022-5-26T04:35:47Z
2022-05-26T02:37:08Z,42.805,6.029,13.3000,4.60033,2470.67,2022-5-26T04:38:50Z
2022-05-26T02:40:11Z,42.805,6.029,13.3003,4.60033,2470.707,2022-5-26T04:41:53Z
2022-05-26T02:43:14Z,42.805,6.029,13.3001,4.60033,2470.693,2022-5-26T04:44:56Z
2022-05-26T02:46:18Z,42.805,6.029,13.3003,4.60033,2470.633,2022-5-26T04:47:59Z
2022-05-26T02:49:21Z,42.805,6.029,13.3000,4.60034,2470.661,2022-5-26T04:51:03Z
2022-05-26T02:52:24Z,42.805,6.029,13.3002,4.60034,2470.693,2022-5-26T04:54:06Z
2022-05-26T02:55:27Z,42.805,6.029,13.3003,4.60033,2470.693,2022-5-26T04:57:09Z
2022-05-26T02:58:30Z,42.805,6.029,13.3002,4.60033,2470.693,2022-5-26T05:00:12Z
2022-05-26T03:01:33Z,42.805,6.029,13.3004,4.60033,2470.693,2022-5-26T05:03:15Z
2022-05-26T03:04:36Z,42.805,6.029,13.3004,4.60033,2470.646,2022-5-26T05:06:18Z
2022-05-26T03:07:39Z,42.805,6.029,13.3000,4.60033,2470.693,2022-5-26T05:09:21Z
2022-05-26T03:10:43Z,42.805,6.029,13.2999,4.60033,2470.717,2022-5-26T05:12:24Z
2022-05-26T03:13:46Z,42.805,6.029,13.3000,4.60033,2470.707,2022-5-26T05:15:27Z
2022-05-26T03:16:49Z,42.805,6.029,13.2999,4.60033,2470.707,2022-5-26T05:18:31Z
2022-05-26T03:19:52Z,42.805,6.029,13.3003,4.60032,2470.693,2022-5-26T05:21:34Z
2022-05-26T03:22:55Z,42.805,6.029,13.3004,4.60033,2470.707,2022-5-26T05:24:37Z
2022-05-26T03:25:58Z,42.805,6.029,13.3009,4.60032,2470.707,2022-5-26T05:27:40Z
2022-05-26T03:29:01Z,42.805,6.029,13.3003,4.60032,2470.693,2022-5-26T05:30:43Z
2022-05-26T03:32:04Z,42.805,6.029,13.3003,4.60033,2470.73,2022-5-26T05:33:46Z
2022-05-26T03:35:08Z,42.805,6.029,13.3002,4.60033,2470.684,2022-5-26T05:36:49Z
2022-05-26T03:38:11Z,42.805,6.029,13.2998,4.60033,2470.717,2022-5-26T05:39:52Z
2022-05-26T03:41:14Z,42.805,6.029,13.3003,4.60034,2470.73,2022-5-26T05:42:56Z
2022-05-26T03:44:17Z,42.805,6.029,13.2999,4.60033,2470.693,2022-5-26T05:45:59Z
2022-05-26T03:47:20Z,42.805,6.029,13.3004,4.60033,2470.717,2022-5-26T05:49:02Z
2022-05-26T03:50:23Z,42.805,6.029,13.3001,4.60033,2470.717,2022-5-26T05:52:05Z
2022-05-26T03:53:26Z,42.805,6.029,13.3000,4.60033,2470.707,2022-5-26T05:55:08Z
2022-05-26T03:56:29Z,42.805,6.029,13.3001,4.60033,2470.67,2022-5-26T05:58:11Z
2022-05-26T03:59:32Z,42.805,6.029,13.3002,4.60033,2470.73,2022-5-26T06:01:14Z
2022-05-26T04:02:36Z,42.805,6.029,13.3001,4.60038,2470.693,2022-5-26T06:04:17Z
2022-05-26T04:05:39Z,42.805,6.029,13.3003,4.60033,2470.693,2022-5-26T06:07:20Z
2022-05-26T04:08:42Z,42.805,6.029,13.2999,4.60033,2470.717,2022-5-26T06:10:24Z
2022-05-26T04:11:45Z,42.805,6.029,13.3004,4.60033,2470.693,2022-5-26T06:13:27Z
2022-05-26T04:14:48Z,42.805,6.029,13.3000,4.60033,2470.717,2022-5-26T06:16:30Z
2022-05-26T04:17:51Z,42.805,6.029,13.3003,4.60033,2470.717,2022-5-26T06:19:33Z
2022-05-26T04:20:54Z,42.805,6.029,13.3002,4.60033,2470.693,2022-5-26T06:22:36Z
2022-05-26T04:23:57Z,42.805,6.029,13.3003,4.60033,2470.707,2022-5-26T06:25:39Z
2022-05-26T04:27:01Z,42.805,6.029,13.3006,4.60033,2470.693,2022-5-26T06:28:42Z
2022-05-26T04:30:04Z,42.805,6.029,13.3000,4.60037,2470.693,2022-5-26T06:31:45Z
2022-05-26T04:33:07Z,42.805,6.029,13.3000,4.60032,2470.67,2022-5-26T06:34:49Z
2022-05-26T04:36:10Z,42.805,6.029,13.3004,4.60036,2470.693,2022-5-26T06:37:52Z
2022-05-26T04:39:13Z,42.805,6.029,13.2999,4.60033,2470.73,2022-5-26T06:40:55Z
2022-05-26T04:42:16Z,42.805,6.029,13.3001,4.60033,2470.717,2022-5-26T06:43:58Z
2022-05-26T04:45:19Z,42.805,6.029,13.3000,4.60033,2470.693,2022-5-26T06:47:01Z
2022-05-26T04:48:22Z,42.805,6.029,13.3003,4.60033,2470.73,2022-5-26T06:50:04Z
2022-05-26T04:51:26Z,42.805,6.029,13.3001,4.60033,2470.717,2022-5-26T06:53:07Z
2022-05-26T04:54:29Z,42.805,6.029,13.3004,4.60033,2470.684,2022-5-26T06:56:10Z
2022-05-26T04:57:32Z,42.805,6.029,13.3003,4.60033,2470.707,2022-5-26T06:59:14Z
2022-05-26T05:00:35Z,42.805,6.029,13.3004,4.60033,2470.707,2022-5-26T07:02:17Z
2022-05-26T05:03:38Z,42.805,6.029,13.3003,4.60036,2470.717,2022-5-26T07:05:20Z
2022-05-26T05:06:41Z,42.805,6.029,13.3002,4.60033,2470.717,2022-5-26T07:08:23Z
2022-05-26T05:09:44Z,42.805,6.029,13.3001,4.60033,2470.717,2022-5-26T07:11:26Z
2022-05-26T05:12:47Z,42.805,6.029,13.3000,4.60034,2470.693,2022-5-26T07:14:29Z
2022-05-26T05:15:50Z,42.805,6.029,13.3000,4.60033,2470.693,2022-5-26T07:17:32Z
2022-05-26T05:18:54Z,42.805,6.029,13.3006,4.60033,2470.693,2022-5-26T07:20:35Z
2022-05-26T05:21:57Z,42.805,6.029,13.3004,4.60032,2470.73,2022-5-26T07:23:38Z
2022-05-26T05:25:00Z,42.805,6.029,13.3006,4.60033,2470.707,2022-5-26T07:26:42Z
2022-05-26T05:28:03Z,42.805,6.029,13.3000,4.60033,2470.707,2022-5-26T07:29:45Z
2022-05-26T05:31:06Z,42.805,6.029,13.3002,4.60033,2470.717,2022-5-26T07:32:48Z
2022-05-26T05:34:09Z,42.805,6.029,13.3005,4.60033,2470.693,2022-5-26T07:35:51Z
2022-05-26T05:37:12Z,42.805,6.029,13.3005,4.60033,2470.693,2022-5-26T07:38:54Z
2022-05-26T05:40:15Z,42.805,6.029,13.3005,4.60032,2470.717,2022-5-26T07:41:57Z
2022-05-26T05:43:19Z,42.805,6.029,13.3002,4.60033,2470.679,2022-5-26T07:45:00Z
2022-05-26T05:46:22Z,42.805,6.029,13.2998,4.60033,2470.707,2022-5-26T07:48:03Z
2022-05-26T05:49:25Z,42.805,6.029,13.3000,4.60036,2470.67,2022-5-26T07:51:07Z
2022-05-26T05:52:28Z,42.805,6.029,13.2999,4.60033,2470.693,2022-5-26T07:54:10Z
2022-05-26T05:55:31Z,42.805,6.029,13.3000,4.60033,2470.679,2022-5-26T07:57:13Z
2022-05-26T05:58:34Z,42.805,6.029,13.3002,4.60034,2470.646,2022-5-26T08:00:16Z
2022-05-26T06:01:37Z,42.805,6.029,13.3000,4.60033,2470.67,2022-5-26T08:03:19Z
2022-05-26T06:04:40Z,42.805,6.029,13.3005,4.60034,2470.73,2022-5-26T08:06:22Z
2022-05-26T06:07:43Z,42.805,6.029,13.3002,4.60033,2470.707,2022-5-26T08:09:25Z
2022-05-26T06:10:47Z,42.805,6.029,13.3004,4.60034,2470.707,2022-5-26T08:12:28Z
2022-05-26T06:13:50Z,42.805,6.029,13.3002,4.60036,2470.707,2022-5-26T08:15:32Z
2022-05-26T06:16:53Z,42.805,6.029,13.3002,4.60034,2470.684,2022-5-26T08:18:35Z
2022-05-26T06:19:56Z,42.805,6.029,13.3001,4.60033,2470.693,2022-5-26T08:21:38Z
2022-05-26T06:22:59Z,42.805,6.029,13.3003,4.60033,2470.684,2022-5-26T08:24:41Z
2022-05-26T06:26:02Z,42.805,6.029,13.3005,4.60034,2470.684,2022-5-26T08:27:44Z
2022-05-26T06:29:05Z,42.805,6.029,13.3006,4.60034,2470.684,2022-5-26T08:30:47Z
2022-05-26T06:32:08Z,42.805,6.029,13.3002,4.60033,2470.67,2022-5-26T08:33:50Z
2022-05-26T06:35:12Z,42.805,6.029,13.3002,4.60033,2470.67,2022-5-26T08:36:53Z
2022-05-26T06:38:15Z,42.805,6.029,13.3002,4.60034,2470.67,2022-5-26T08:39:57Z
2022-05-26T06:41:18Z,42.805,6.029,13.3000,4.60033,2470.67,2022-5-26T08:43:00Z
2022-05-26T06:44:21Z,42.805,6.029,13.3003,4.60034,2470.646,2022-5-26T08:46:03Z
2022-05-26T06:47:24Z,42.805,6.029,13.3003,4.60038,2470.684,2022-5-26T08:49:06Z
2022-05-26T06:50:27Z,42.805,6.029,13.3001,4.60035,2470.646,2022-5-26T08:52:09Z
2022-05-26T06:53:30Z,42.805,6.029,13.3004,4.60034,2470.67,2022-5-26T08:55:12Z
2022-05-26T06:56:33Z,42.805,6.029,13.3002,4.60035,2470.646,2022-5-26T08:58:15Z
2022-05-26T06:59:37Z,42.805,6.029,13.3004,4.60034,2470.624,2022-5-26T09:01:18Z
2022-05-26T07:02:40Z,42.805,6.029,13.3000,4.60034,2470.637,2022-5-26T09:04:21Z
2022-05-26T07:05:43Z,42.805,6.029,13.3004,4.60034,2470.633,2022-5-26T09:07:25Z
2022-05-26T07:08:46Z,42.805,6.029,13.3004,4.60037,2470.646,2022-5-26T09:10:28Z
2022-05-26T07:11:49Z,42.805,6.029,13.3004,4.60036,2470.67,2022-5-26T09:13:31Z
2022-05-26T07:14:52Z,42.805,6.029,13.3005,4.60035,2470.646,2022-5-26T09:16:34Z
2022-05-26T07:17:55Z,42.805,6.029,13.3004,4.60035,2470.637,2022-5-26T09:19:37Z
2022-05-26T07:20:58Z,42.805,6.029,13.3001,4.60036,2470.661,2022-5-26T09:22:40Z
2022-05-26T07:24:02Z,42.805,6.029,13.3006,4.60034,2470.637,2022-5-26T09:25:43Z
2022-05-26T07:27:05Z,42.805,6.029,13.3002,4.60034,2470.646,2022-5-26T09:28:46Z
2022-05-26T07:30:08Z,42.805,6.029,13.3006,4.60035,2470.637,2022-5-26T09:31:50Z
2022-05-26T07:33:11Z,42.805,6.029,13.3003,4.60033,2470.614,2022-5-26T09:34:53Z
2022-05-26T07:36:14Z,42.805,6.029,13.3006,4.60036,2470.637,2022-5-26T09:37:56Z
2022-05-26T07:39:17Z,42.805,6.029,13.3000,4.60034,2470.637,2022-5-26T09:40:59Z
2022-05-26T07:42:20Z,42.805,6.029,13.3004,4.60035,2470.624,2022-5-26T09:44:02Z
2022-05-26T07:45:23Z,42.805,6.029,13.3005,4.60036,2470.637,2022-5-26T09:47:05Z
2022-05-26T07:48:27Z,42.805,6.029,13.3003,4.60036,2470.624,2022-5-26T09:50:08Z
2022-05-26T07:51:30Z,42.805,6.029,13.3002,4.60035,2470.661,2022-5-26T09:53:11Z
2022-05-26T07:54:33Z,42.805,6.029,13.3005,4.60035,2470.637,2022-5-26T09:56:15Z
2022-05-26T07:57:36Z,42.805,6.029,13.3006,4.60035,2470.624,2022-5-26T09:59:18Z
2022-05-26T08:00:39Z,42.805,6.029,13.3004,4.60037,2470.646,2022-5-26T10:02:21Z
2022-05-26T08:03:42Z,42.805,6.029,13.3006,4.60035,2470.624,2022-5-26T10:05:24Z
2022-05-26T08:06:45Z,42.805,6.029,13.3001,4.60034,2470.6,2022-5-26T10:08:27Z
2022-05-26T08:09:48Z,42.805,6.029,13.3003,4.60034,2470.6,2022-5-26T10:11:30Z
2022-05-26T08:12:51Z,42.805,6.029,13.3005,4.60034,2470.6,2022-5-26T10:14:33Z
2022-05-26T08:15:55Z,42.805,6.029,13.3008,4.60036,2470.624,2022-5-26T10:17:36Z
2022-05-26T08:18:58Z,42.805,6.029,13.3002,4.60034,2470.591,2022-5-26T10:20:40Z
2022-05-26T08:22:01Z,42.805,6.029,13.3005,4.60035,2470.624,2022-5-26T10:23:43Z
2022-05-26T08:25:04Z,42.805,6.029,13.3002,4.60034,2470.614,2022-5-26T10:26:46Z
2022-05-26T08:28:07Z,42.805,6.029,13.3003,4.60035,2470.6,2022-5-26T10:29:49Z
2022-05-26T08:31:10Z,42.805,6.029,13.3004,4.60041,2470.6,2022-5-26T10:32:52Z
2022-05-26T08:34:13Z,42.805,6.029,13.3006,4.60035,2470.591,2022-5-26T10:35:55Z
2022-05-26T08:37:17Z,42.805,6.029,13.3004,4.60035,2470.6,2022-5-26T10:38:58Z
2022-05-26T08:40:20Z,42.805,6.029,13.3003,4.60035,2470.553,2022-5-26T10:42:01Z
2022-05-26T08:43:23Z,42.805,6.029,13.3006,4.60033,2470.567,2022-5-26T10:45:05Z
2022-05-26T08:46:26Z,42.805,6.029,13.3005,4.60035,2470.577,2022-5-26T10:48:08Z
2022-05-26T08:49:29Z,42.805,6.029,13.3004,4.60038,2470.577,2022-5-26T10:51:11Z
2022-05-26T08:52:32Z,42.805,6.029,13.3007,4.60034,2470.6,2022-5-26T10:54:14Z
2022-05-26T08:55:35Z,42.805,6.029,13.3000,4.60034,2470.591,2022-5-26T10:57:17Z
2022-05-26T08:58:38Z,42.805,6.029,13.3003,4.60033,2470.577,2022-5-26T11:00:20Z
2022-05-26T09:01:42Z,42.805,6.029,13.3000,4.60035,2470.591,2022-5-26T11:03:23Z
2022-05-26T09:04:45Z,42.805,6.029,13.3004,4.60038,2470.567,2022-5-26T11:06:26Z
2022-05-26T09:07:48Z,42.805,6.029,13.3001,4.60033,2470.544,2022-5-26T11:09:30Z
2022-05-26T09:10:51Z,42.805,6.029,13.3002,4.60033,2470.577,2022-5-26T11:12:33Z
2022-05-26T09:13:54Z,42.805,6.029,13.3007,4.60034,2470.553,2022-5-26T11:15:36Z
2022-05-26T09:16:57Z,42.805,6.029,13.3004,4.60036,2470.591,2022-5-26T11:18:39Z
2022-05-26T09:20:00Z,42.805,6.029,13.3001,4.60037,2470.539,2022-5-26T11:21:42Z
2022-05-26T09:23:03Z,42.805,6.029,13.3004,4.60036,2470.577,2022-5-26T11:24:45Z
2022-05-26T09:26:07Z,42.805,6.029,13.3005,4.60036,2470.591,2022-5-26T11:27:48Z
2022-05-26T09:29:10Z,42.805,6.029,13.3005,4.60033,2470.567,2022-5-26T11:30:51Z
2022-05-26T09:32:13Z,42.805,6.029,13.3005,4.60034,2470.553,2022-5-26T11:33:55Z
2022-05-26T09:35:16Z,42.805,6.029,13.3000,4.60033,2470.567,2022-5-26T11:36:58Z
2022-05-26T09:38:19Z,42.805,6.029,13.3000,4.60033,2470.544,2022-5-26T11:40:01Z
2022-05-26T09:41:22Z,42.805,6.029,13.3005,4.60036,2470.577,2022-5-26T11:43:04Z
2022-05-26T09:44:25Z,42.805,6.029,13.3004,4.60035,2470.591,2022-5-26T11:46:07Z
2022-05-26T09:47:28Z,42.805,6.029,13.3000,4.60035,2470.53,2022-5-26T11:49:10Z
2022-05-26T09:50:32Z,42.805,6.029,13.3002,4.60034,2470.544,2022-5-26T11:52:13Z
2022-05-26T09:53:35Z,42.805,6.029,13.3004,4.60035,2470.544,2022-5-26T11:55:16Z
2022-05-26T09:56:38Z,42.805,6.029,13.3003,4.60033,2470.52,2022-5-26T11:58:20Z
2022-05-26T09:59:41Z,42.805,6.029,13.3004,4.60034,2470.577,2022-5-26T12:01:23Z
2022-05-26T10:02:44Z,42.805,6.029,13.3001,4.60033,2470.591,2022-5-26T12:04:26Z
2022-05-26T10:05:47Z,42.805,6.029,13.3005,4.60034,2470.544,2022-5-26T12:07:29Z
2022-05-26T10:08:50Z,42.805,6.029,13.3003,4.60034,2470.53,2022-5-26T12:10:32Z
2022-05-26T10:11:53Z,42.805,6.029,13.3006,4.60034,2470.53,2022-5-26T12:13:35Z
2022-05-26T10:14:57Z,42.805,6.029,13.3005,4.60034,2470.544,2022-5-26T12:16:38Z
2022-05-26T10:18:00Z,42.805,6.029,13.3001,4.60035,2470.544,2022-5-26T12:19:41Z
2022-05-26T10:21:03Z,42.805,6.029,13.3006,4.60034,2470.53,2022-5-26T12:22:45Z
2022-05-26T10:24:06Z,42.805,6.029,13.3006,4.60034,2470.553,2022-5-26T12:25:48Z
2022-05-26T10:27:09Z,42.805,6.029,13.3003,4.60035,2470.544,2022-5-26T12:28:51Z
2022-05-26T10:30:12Z,42.805,6.029,13.3002,4.60033,2470.52,2022-5-26T12:31:54Z
2022-05-26T10:33:15Z,42.805,6.029,13.3002,4.60034,2470.544,2022-5-26T12:34:57Z
2022-05-26T10:36:18Z,42.805,6.029,13.3002,4.60034,2470.53,2022-5-26T12:38:00Z
2022-05-26T10:39:22Z,42.805,6.029,13.3006,4.60034,2470.497,2022-5-26T12:41:03Z
2022-05-26T10:42:25Z,42.805,6.029,13.3006,4.60042,2470.553,2022-5-26T12:44:06Z
2022-05-26T10:45:28Z,42.805,6.029,13.3006,4.60035,2470.53,2022-5-26T12:47:10Z
2022-05-26T10:48:31Z,42.805,6.029,13.3006,4.60035,2470.553,2022-5-26T12:50:13Z
2022-05-26T10:51:34Z,42.805,6.029,13.3002,4.60036,2470.544,2022-5-26T12:53:16Z
2022-05-26T10:54:37Z,42.805,6.029,13.3005,4.60041,2470.53,2022-5-26T12:56:19Z
2022-05-26T10:57:40Z,42.805,6.029,13.3005,4.60033,2470.53,2022-5-26T12:59:22Z
2022-05-26T11:00:43Z,42.805,6.029,13.3006,4.60033,2470.507,2022-5-26T13:02:25Z
2022-05-26T11:03:47Z,42.805,6.029,13.3004,4.60034,2470.553,2022-5-26T13:05:28Z
2022-05-26T11:06:50Z,42.805,6.029,13.3007,4.60034,2470.507,2022-5-26T13:08:31Z
2022-05-26T11:09:53Z,42.805,6.029,13.3008,4.60034,2470.507,2022-5-26T13:11:35Z
2022-05-26T11:12:56Z,42.805,6.029,13.3001,4.60034,2470.507,2022-5-26T13:14:38Z
2022-05-26T11:15:59Z,42.805,6.029,13.3004,4.60033,2470.53,2022-5-26T13:17:41Z
2022-05-26T11:19:02Z,42.805,6.029,13.3003,4.60033,2470.53,2022-5-26T13:20:44Z
2022-05-26T11:22:05Z,42.805,6.029,13.3004,4.60033,2470.553,2022-5-26T13:23:47Z
2022-05-26T11:25:08Z,42.805,6.029,13.3002,4.60033,2470.483,2022-5-26T13:26:50Z
2022-05-26T11:28:12Z,42.805,6.029,13.3004,4.60033,2470.53,2022-5-26T13:29:53Z
2022-05-26T11:31:15Z,42.805,6.029,13.2998,4.60035,2470.507,2022-5-26T13:32:57Z
2022-05-26T11:34:18Z,42.805,6.029,13.3004,4.60033,2470.507,2022-5-26T13:36:00Z
2022-05-26T11:37:21Z,42.805,6.029,13.3004,4.60034,2470.507,2022-5-26T13:39:03Z
2022-05-26T11:40:24Z,42.805,6.029,13.3006,4.60033,2470.507,2022-5-26T13:42:06Z
2022-05-26T11:43:27Z,42.805,6.029,13.3005,4.60033,2470.497,2022-5-26T13:45:09Z
2022-05-26T11:46:30Z,42.805,6.029,13.3002,4.60033,2470.507,2022-5-26T13:48:12Z
2022-05-26T11:49:33Z,42.805,6.029,13.3002,4.60035,2470.507,2022-5-26T13:51:15Z
2022-05-26T11:52:37Z,42.805,6.029,13.3006,4.60033,2470.544,2022-5-26T13:54:18Z
2022-05-26T11:55:40Z,42.805,6.029,13.3001,4.60034,2470.507,2022-5-26T13:57:22Z
2022-05-26T11:58:43Z,42.805,6.029,13.3006,4.60033,2470.52,2022-5-26T14:00:25Z
2022-05-26T12:01:46Z,42.805,6.029,13.2996,4.60035,2470.52,2022-5-26T14:03:28Z
2022-05-26T12:04:49Z,42.805,6.029,13.3004,4.60033,2470.544,2022-5-26T14:06:31Z
2022-05-26T12:07:52Z,42.805,6.029,13.3003,4.60036,2470.52,2022-5-26T14:09:34Z
2022-05-26T12:10:55Z,42.805,6.029,13.3006,4.60033,2470.507,2022-5-26T14:12:37Z
2022-05-26T12:13:58Z,42.805,6.029,13.3007,4.60033,2470.507,2022-5-26T14:15:40Z
2022-05-26T12:17:02Z,42.805,6.029,13.3000,4.60033,2470.507,2022-5-26T14:18:43Z
2022-05-26T12:20:05Z,42.805,6.029,13.3002,4.60035,2470.52,2022-5-26T14:21:46Z
2022-05-26T12:23:08Z,42.805,6.029,13.3000,4.60033,2470.497,2022-5-26T14:24:50Z
2022-05-26T12:26:11Z,42.805,6.029,13.3002,4.60033,2470.497,2022-5-26T14:27:53Z
2022-05-26T12:29:14Z,42.805,6.029,13.3001,4.60033,2470.53,2022-5-26T14:30:56Z
2022-05-26T12:32:17Z,42.805,6.029,13.3004,4.60032,2470.507,2022-5-26T14:33:59Z
2022-05-26T12:35:20Z,42.805,6.029,13.3002,4.60032,2470.52,2022-5-26T14:37:02Z
2022-05-26T12:38:23Z,42.805,6.029,13.3000,4.60033,2470.52,2022-5-26T14:40:05Z
2022-05-26T12:41:27Z,42.805,6.029,13.3003,4.60032,2470.553,2022-5-26T14:43:08Z
2022-05-26T12:44:30Z,42.805,6.029,13.3004,4.60032,2470.567,2022-5-26T14:46:12Z
2022-05-26T12:47:33Z,42.805,6.029,13.3006,4.60033,2470.544,2022-5-26T14:49:15Z
2022-05-26T12:50:36Z,42.805,6.029,13.3005,4.60033,2470.507,2022-5-26T14:52:18Z
2022-05-26T12:53:39Z,42.805,6.029,13.2998,4.60032,2470.507,2022-5-26T14:55:21Z
2022-05-26T12:56:42Z,42.805,6.029,13.3004,4.60034,2470.53,2022-5-26T14:58:24Z
2022-05-26T12:59:45Z,42.805,6.029,13.3004,4.60032,2470.544,2022-5-26T15:01:27Z
2022-05-26T13:02:48Z,42.805,6.029,13.3004,4.60033,2470.544,2022-5-26T15:04:30Z
2022-05-26T13:05:52Z,42.805,6.029,13.3005,4.60036,2470.53,2022-5-26T15:07:33Z
2022-05-26T13:08:55Z,42.805,6.029,13.3004,4.60039,2470.53,2022-5-26T15:10:37Z
2022-05-26T13:11:58Z,42.805,6.029,13.3000,4.60033,2470.52,2022-5-26T15:13:40Z
2022-05-26T13:15:01Z,42.805,6.029,13.3000,4.60033,2470.53,2022-5-26T15:16:43Z
2022-05-26T13:18:04Z,42.805,6.029,13.3004,4.60032,2470.544,2022-5-26T15:19:46Z
2022-05-26T13:21:07Z,42.805,6.029,13.3004,4.60035,2470.507,2022-5-26T15:22:49Z
2022-05-26T13:24:10Z,42.805,6.029,13.2998,4.60032,2470.577,2022-5-26T15:25:52Z
2022-05-26T13:27:13Z,42.805,6.029,13.3004,4.60034,2470.591,2022-5-26T15:28:55Z
2022-05-26T13:30:17Z,42.805,6.029,13.3000,4.60038,2470.577,2022-5-26T15:31:58Z
2022-05-26T13:33:20Z,42.805,6.029,13.3004,4.60031,2470.577,2022-5-26T15:35:02Z
2022-05-26T13:36:23Z,42.805,6.029,13.3003,4.60032,2470.567,2022-5-26T15:38:05Z
2022-05-26T13:39:26Z,42.805,6.029,13.3002,4.60031,2470.577,2022-5-26T15:41:08Z
2022-05-26T13:42:29Z,42.805,6.029,13.3002,4.60031,2470.53,2022-5-26T15:44:11Z
2022-05-26T13:45:32Z,42.805,6.029,13.3000,4.60036,2470.577,2022-5-26T15:47:14Z
2022-05-26T13:48:35Z,42.805,6.029,13.3004,4.60033,2470.577,2022-5-26T15:50:17Z
2022-05-26T13:51:38Z,42.805,6.029,13.3003,4.60032,2470.591,2022-5-26T15:53:20Z
2022-05-26T13:54:42Z,42.805,6.029,13.2999,4.60031,2470.577,2022-5-26T15:56:23Z
2022-05-26T13:57:45Z,42.805,6.029,13.3005,4.60033,2470.553,2022-5-26T15:59:27Z
2022-05-26T14:00:48Z,42.805,6.029,13.3005,4.60032,2470.53,2022-5-26T16:02:30Z
2022-05-26T14:03:51Z,42.805,6.029,13.3001,4.60031,2470.53,2022-5-26T16:05:33Z
2022-05-26T14:06:54Z,42.805,6.029,13.2998,4.60031,2470.6,2022-5-26T16:08:36Z
2022-05-26T14:09:57Z,42.805,6.029,13.2999,4.60031,2470.553,2022-5-26T16:11:39Z
2022-05-26T14:13:00Z,42.805,6.029,13.3000,4.60031,2470.6,2022-5-26T16:14:42Z
2022-05-26T14:16:03Z,42.805,6.029,13.3003,4.60032,2470.591,2022-5-26T16:17:45Z
2022-05-26T14:19:07Z,42.805,6.029,13.2998,4.60031,2470.6,2022-5-26T16:20:48Z
2022-05-26T14:22:10Z,42.805,6.029,13.3002,4.60031,2470.577,2022-5-26T16:23:52Z
2022-05-26T14:25:13Z,42.805,6.029,13.3000,4.60033,2470.577,2022-5-26T16:26:55Z
2022-05-26T14:28:16Z,42.805,6.029,13.3001,4.60031,2470.624,2022-5-26T16:29:58Z
2022-05-26T14:31:19Z,42.805,6.029,13.3002,4.60034,2470.6,2022-5-26T16:33:01Z
2022-05-26T14:34:22Z,42.805,6.029,13.3001,4.60032,2470.591,2022-5-26T16:36:04Z
2022-05-26T14:37:25Z,42.805,6.029,13.3000,4.60033,2470.624,2022-5-26T16:39:07Z
2022-05-26T14:40:29Z,42.805,6.029,13.3002,4.60031,2470.614,2022-5-26T16:42:10Z
2022-05-26T14:43:32Z,42.805,6.029,13.2998,4.60031,2470.577,2022-5-26T16:45:13Z
2022-05-26T14:46:35Z,42.805,6.029,13.3006,4.60032,2470.661,2022-5-26T16:48:17Z
2022-05-26T14:49:38Z,42.805,6.029,13.2999,4.60031,2470.637,2022-5-26T16:51:20Z
2022-05-26T14:52:41Z,42.805,6.029,13.3000,4.60031,2470.614,2022-5-26T16:54:23Z
2022-05-26T14:55:44Z,42.805,6.029,13.3000,4.60031,2470.624,2022-5-26T16:57:26Z
2022-05-26T14:58:47Z,42.805,6.029,13.3004,4.60035,2470.637,2022-5-26T17:00:29Z
2022-05-26T15:01:50Z,42.805,6.029,13.3000,4.60031,2470.6,2022-5-26T17:03:32Z
2022-05-26T15:04:54Z,42.805,6.029,13.3001,4.60032,2470.637,2022-5-26T17:06:35Z
2022-05-26T15:07:57Z,42.805,6.029,13.2999,4.60031,2470.624,2022-5-26T17:09:38Z
2022-05-26T15:11:00Z,42.805,6.029,13.3001,4.60031,2470.624,2022-5-26T17:12:42Z
2022-05-26T15:14:03Z,42.805,6.029,13.2999,4.60031,2470.614,2022-5-26T17:15:45Z